Time,TemperatureF,DewpointF,PressureIn,WindDirection,WindDirectionDegrees,WindSpeedMPH,WindSpeedGustMPH,Humidity,HourlyPrecipIn,Conditions,Clouds,dailyrainin,SolarRadiationWatts/m^2,SoftwareType,DateUTC
2013-10-08 00:11:00,58.4,57.0,29.93,WSW,240,6.0,-999.0,96,-99.99,,,0.00,0,weatherlink.com 1.10,2013-10-07 23:11:00,
2013-10-08 00:26:00,58.1,57.0,29.93,SSW,207,2.0,-999.0,96,-99.99,,,0.00,0,weatherlink.com 1.10,2013-10-07 23:26:00,
2013-10-08 00:41:00,58.1,57.0,29.93,South,182,12.0,-999.0,97,-99.99,,,0.00,0,weatherlink.com 1.10,2013-10-07 23:41:00,
2013-10-08 00:56:00,58.3,58.0,29.93,South,186,4.0,-999.0,97,-99.99,,,0.00,0,weatherlink.com 1.10,2013-10-07 23:56:00,
2013-10-08 01:11:00,58.3,58.0,29.93,South,188,3.0,-999.0,97,-99.99,,,0.01,0,weatherlink.com 1.10,2013-10-08 00:11:00,
2013-10-08 01:26:00,58.1,57.0,29.93,South,173,8.0,-999.0,96,-99.99,,,0.01,0,weatherlink.com 1.10,2013-10-08 00:26:00,
2013-10-08 01:41:00,58.2,57.0,29.93,SSE,167,5.0,-999.0,96,-99.99,,,0.01,0,weatherlink.com 1.10,2013-10-08 00:41:00,
2013-10-08 01:56:00,58.1,57.0,29.94,SW,232,6.0,-999.0,96,-99.99,,,0.01,0,weatherlink.com 1.10,2013-10-08 00:56:00,
2013-10-08 02:11:00,58.1,57.0,29.94,WSW,248,8.0,-999.0,96,-99.99,,,0.01,0,weatherlink.com 1.10,2013-10-08 01:11:00,
2013-10-08 02:26:00,57.9,57.0,29.94,SW,219,8.0,-999.0,96,-99.99,,,0.02,0,weatherlink.com 1.10,2013-10-08 01:26:00,
2013-10-08 02:41:00,57.6,57.0,29.94,WSW,253,8.0,-999.0,96,-99.99,,,0.02,0,weatherlink.com 1.10,2013-10-08 01:41:00,
2013-10-08 02:56:00,57.1,56.0,29.95,SSW,207,3.0,-999.0,96,-99.99,,,0.02,0,weatherlink.com 1.10,2013-10-08 01:56:00,
2013-10-08 03:11:00,56.4,55.0,29.95,SW,224,0.0,-999.0,95,-99.99,,,0.02,0,weatherlink.com 1.10,2013-10-08 02:11:00,
2013-10-08 03:26:00,56.1,55.0,29.95,SSW,192,3.0,-999.0,95,-99.99,,,0.02,0,weatherlink.com 1.10,2013-10-08 02:26:00,
2013-10-08 03:41:00,56.7,55.0,29.95,SW,217,5.0,-999.0,95,-99.99,,,0.02,0,weatherlink.com 1.10,2013-10-08 02:41:00,
2013-10-08 03:56:00,57.0,55.0,29.95,WSW,239,5.0,-999.0,94,-99.99,,,0.02,0,weatherlink.com 1.10,2013-10-08 02:56:00,
2013-10-08 04:11:00,57.1,55.0,29.95,SW,227,7.0,-999.0,93,-99.99,,,0.02,0,weatherlink.com 1.10,2013-10-08 03:11:00,
2013-10-08 04:26:00,57.0,55.0,29.95,SSW,203,13.0,-999.0,93,-99.99,,,0.02,0,weatherlink.com 1.10,2013-10-08 03:26:00,
2013-10-08 04:41:00,56.8,55.0,29.96,WSW,244,8.0,-999.0,93,-99.99,,,0.02,0,weatherlink.com 1.10,2013-10-08 03:41:00,
2013-10-08 04:56:00,56.6,55.0,29.96,South,184,13.0,-999.0,94,-99.99,,,0.02,0,weatherlink.com 1.10,2013-10-08 03:56:00,
2013-10-08 05:11:00,56.5,55.0,29.97,SSE,156,2.0,-999.0,94,-99.99,,,0.02,0,weatherlink.com 1.10,2013-10-08 04:11:00,
2013-10-08 05:27:00,56.4,55.0,29.98,South,189,2.0,-999.0,95,-99.99,,,0.02,0,weatherlink.com 1.10,2013-10-08 04:27:00,
2013-10-08 05:42:00,56.3,55.0,29.98,WSW,257,4.0,-999.0,95,-99.99,,,0.02,0,weatherlink.com 1.10,2013-10-08 04:42:00,
2013-10-08 05:57:00,56.1,54.0,29.97,WSW,242,5.0,-999.0,94,-99.99,,,0.02,0,weatherlink.com 1.10,2013-10-08 04:57:00,
2013-10-08 06:12:00,56.0,54.0,29.98,West,261,18.0,-999.0,93,-99.99,,,0.02,0,weatherlink.com 1.10,2013-10-08 05:12:00,
2013-10-08 06:27:00,56.1,54.0,29.99,WSW,239,10.0,-999.0,94,-99.99,,,0.02,0,weatherlink.com 1.10,2013-10-08 05:27:00,
2013-10-08 06:42:00,55.8,54.0,30.00,SW,232,5.0,-999.0,93,-99.99,,,0.02,0,weatherlink.com 1.10,2013-10-08 05:42:00,
2013-10-08 06:57:00,55.4,54.0,30.00,West,279,9.0,-999.0,93,-99.99,,,0.02,0,weatherlink.com 1.10,2013-10-08 05:57:00,
2013-10-08 07:12:00,55.5,54.0,30.02,West,265,8.0,-999.0,93,-99.99,,,0.02,0,weatherlink.com 1.10,2013-10-08 06:12:00,
2013-10-08 07:27:00,55.5,54.0,30.02,SW,229,5.0,-999.0,93,-99.99,,,0.02,0,weatherlink.com 1.10,2013-10-08 06:27:00,
2013-10-08 07:42:00,55.3,54.0,30.02,West,264,7.0,-999.0,94,-99.99,,,0.02,0,weatherlink.com 1.10,2013-10-08 06:42:00,
2013-10-08 07:57:00,55.2,54.0,30.03,WSW,256,12.0,-999.0,94,-99.99,,,0.02,11,weatherlink.com 1.10,2013-10-08 06:57:00,
2013-10-08 08:12:00,55.1,54.0,30.03,WSW,256,9.0,-999.0,94,-99.99,,,0.02,14,weatherlink.com 1.10,2013-10-08 07:12:00,
2013-10-08 08:42:00,55.2,53.0,30.04,WSW,251,5.0,-999.0,93,-99.99,,,0.02,37,weatherlink.com 1.10,2013-10-08 07:42:00,
2013-10-08 08:57:00,55.4,54.0,30.04,SW,225,2.0,-999.0,93,-99.99,,,0.02,16,weatherlink.com 1.10,2013-10-08 07:57:00,
2013-10-08 09:12:00,55.3,53.0,30.05,West,259,7.0,-999.0,92,-99.99,,,0.02,18,weatherlink.com 1.10,2013-10-08 08:12:00,
2013-10-08 09:27:00,55.2,53.0,30.05,WSW,254,1.0,-999.0,93,-99.99,,,0.02,32,weatherlink.com 1.10,2013-10-08 08:27:00,
2013-10-08 09:42:00,55.4,53.0,30.06,WSW,257,2.0,-999.0,92,-99.99,,,0.02,44,weatherlink.com 1.10,2013-10-08 08:42:00,
2013-10-08 09:57:00,55.6,53.0,30.06,WNW,284,8.0,-999.0,92,-99.99,,,0.02,44,weatherlink.com 1.10,2013-10-08 08:57:00,
2013-10-08 10:12:00,55.8,54.0,30.07,SW,217,5.0,-999.0,93,-99.99,,,0.02,58,weatherlink.com 1.10,2013-10-08 09:12:00,
2013-10-08 10:27:00,56.1,54.0,30.07,WSW,252,3.0,-999.0,93,-99.99,,,0.02,56,weatherlink.com 1.10,2013-10-08 09:27:00,
2013-10-08 10:42:00,56.3,54.0,30.07,SW,218,5.0,-999.0,92,-99.99,,,0.02,62,weatherlink.com 1.10,2013-10-08 09:42:00,
2013-10-08 10:57:00,56.6,54.0,30.08,SSW,193,4.0,-999.0,91,-99.99,,,0.02,62,weatherlink.com 1.10,2013-10-08 09:57:00,
2013-10-08 11:12:00,56.6,54.0,30.08,SSW,200,5.0,-999.0,91,-99.99,,,0.02,77,weatherlink.com 1.10,2013-10-08 10:12:00,
2013-10-08 11:27:00,56.7,54.0,30.08,South,175,4.0,-999.0,91,-99.99,,,0.02,49,weatherlink.com 1.10,2013-10-08 10:27:00,
2013-10-08 11:42:00,56.5,54.0,30.08,SSW,197,4.0,-999.0,92,-99.99,,,0.02,49,weatherlink.com 1.10,2013-10-08 10:42:00,
2013-10-08 11:57:00,56.8,55.0,30.08,SSW,201,5.0,-999.0,92,-99.99,,,0.02,109,weatherlink.com 1.10,2013-10-08 10:57:00,
2013-10-08 12:12:00,57.4,55.0,30.08,SW,231,5.0,-999.0,91,-99.99,,,0.02,139,weatherlink.com 1.10,2013-10-08 11:12:00,
2013-10-08 12:27:00,57.6,55.0,30.09,South,184,4.0,-999.0,91,-99.99,,,0.02,185,weatherlink.com 1.10,2013-10-08 11:27:00,
2013-10-08 12:42:00,58.0,56.0,30.09,WSW,254,10.0,-999.0,92,-99.99,,,0.02,276,weatherlink.com 1.10,2013-10-08 11:42:00,
2013-10-08 12:58:00,58.8,57.0,30.09,WSW,240,10.0,-999.0,92,-99.99,,,0.02,299,weatherlink.com 1.10,2013-10-08 11:58:00,
2013-10-08 13:13:00,59.1,56.0,30.09,West,269,21.0,-999.0,88,-99.99,,,0.02,225,weatherlink.com 1.10,2013-10-08 12:13:00,
2013-10-08 13:28:00,58.1,55.0,30.10,WSW,251,7.0,-999.0,89,-99.99,,,0.02,223,weatherlink.com 1.10,2013-10-08 12:28:00,
2013-10-08 13:43:00,57.5,54.0,30.09,SW,225,11.0,-999.0,89,-99.99,,,0.02,107,weatherlink.com 1.10,2013-10-08 12:43:00,
2013-10-08 13:58:00,56.9,54.0,30.09,West,271,15.0,-999.0,90,-99.99,,,0.02,160,weatherlink.com 1.10,2013-10-08 12:58:00,
2013-10-08 14:13:00,57.2,54.0,30.09,West,279,12.0,-999.0,90,-99.99,,,0.02,279,weatherlink.com 1.10,2013-10-08 13:13:00,
2013-10-08 14:28:00,57.0,54.0,30.10,WSW,248,17.0,-999.0,88,-99.99,,,0.02,111,weatherlink.com 1.10,2013-10-08 13:28:00,
2013-10-08 14:43:00,56.9,54.0,30.10,WSW,254,5.0,-999.0,89,-99.99,,,0.02,188,weatherlink.com 1.10,2013-10-08 13:43:00,
2013-10-08 14:58:00,57.2,54.0,30.10,WNW,284,3.0,-999.0,88,-99.99,,,0.02,234,weatherlink.com 1.10,2013-10-08 13:58:00,
2013-10-08 15:13:00,57.3,53.0,30.10,West,280,13.0,-999.0,86,-99.99,,,0.02,216,weatherlink.com 1.10,2013-10-08 14:13:00,
2013-10-08 15:28:00,57.2,54.0,30.11,West,279,6.0,-999.0,88,-99.99,,,0.02,253,weatherlink.com 1.10,2013-10-08 14:28:00,
2013-10-08 15:43:00,56.7,53.0,30.11,WNW,288,7.0,-999.0,87,-99.99,,,0.02,197,weatherlink.com 1.10,2013-10-08 14:43:00,
2013-10-08 15:58:00,55.5,51.0,30.11,WSW,237,1.0,-999.0,86,-99.99,,,0.02,125,weatherlink.com 1.10,2013-10-08 14:58:00,
2013-10-08 16:13:00,55.6,52.0,30.11,WSW,248,4.0,-999.0,86,-99.99,,,0.02,137,weatherlink.com 1.10,2013-10-08 15:13:00,
2013-10-08 16:28:00,56.9,52.0,30.11,WSW,241,3.0,-999.0,83,-99.99,,,0.02,107,weatherlink.com 1.10,2013-10-08 15:28:00,
2013-10-08 16:43:00,56.2,51.0,30.11,West,278,4.0,-999.0,83,-99.99,,,0.02,86,weatherlink.com 1.10,2013-10-08 15:43:00,
2013-10-08 16:58:00,55.5,51.0,30.11,West,269,5.0,-999.0,84,-99.99,,,0.02,104,weatherlink.com 1.10,2013-10-08 15:58:00,
2013-10-08 17:13:00,55.2,51.0,30.12,WNW,298,16.0,-999.0,84,-99.99,,,0.02,47,weatherlink.com 1.10,2013-10-08 16:13:00,
2013-10-08 17:28:00,54.7,50.0,30.12,WNW,295,9.0,-999.0,85,-99.99,,,0.02,81,weatherlink.com 1.10,2013-10-08 16:28:00,
2013-10-08 17:43:00,54.2,51.0,30.13,NW,306,13.0,-999.0,87,-99.99,,,0.02,23,weatherlink.com 1.10,2013-10-08 16:43:00,
2013-10-08 17:58:00,52.5,50.0,30.13,WSW,237,6.0,-999.0,90,-99.99,,,0.02,30,weatherlink.com 1.10,2013-10-08 16:58:00,
2013-10-08 18:13:00,52.5,50.0,30.13,WSW,256,4.0,-999.0,91,-99.99,,,0.02,14,weatherlink.com 1.10,2013-10-08 17:13:00,
2013-10-08 18:28:00,52.7,50.0,30.13,SW,219,3.0,-999.0,90,-99.99,,,0.02,0,weatherlink.com 1.10,2013-10-08 17:28:00,
2013-10-08 18:43:00,52.7,50.0,30.13,WSW,243,1.0,-999.0,89,-99.99,,,0.02,0,weatherlink.com 1.10,2013-10-08 17:43:00,
2013-10-08 18:58:00,52.5,49.0,30.13,West,271,5.0,-999.0,89,-99.99,,,0.02,0,weatherlink.com 1.10,2013-10-08 17:58:00,
2013-10-08 19:13:00,52.1,49.0,30.13,WSW,254,5.0,-999.0,89,-99.99,,,0.02,0,weatherlink.com 1.10,2013-10-08 18:13:00,
2013-10-08 19:28:00,52.2,49.0,30.13,WSW,254,1.0,-999.0,89,-99.99,,,0.02,0,weatherlink.com 1.10,2013-10-08 18:28:00,
2013-10-08 19:43:00,52.1,49.0,30.13,WSW,242,3.0,-999.0,90,-99.99,,,0.02,0,weatherlink.com 1.10,2013-10-08 18:43:00,
2013-10-08 19:58:00,51.9,49.0,30.14,West,259,5.0,-999.0,90,-99.99,,,0.02,0,weatherlink.com 1.10,2013-10-08 18:58:00,
2013-10-08 20:13:00,51.7,49.0,30.14,SSW,211,4.0,-999.0,90,-99.99,,,0.02,0,weatherlink.com 1.10,2013-10-08 19:13:00,
2013-10-08 20:28:00,52.2,49.0,30.13,SSW,200,5.0,-999.0,90,-99.99,,,0.02,0,weatherlink.com 1.10,2013-10-08 19:28:00,
2013-10-08 20:43:00,52.7,50.0,30.13,WSW,238,6.0,-999.0,89,-99.99,,,0.02,0,weatherlink.com 1.10,2013-10-08 19:43:00,
2013-10-08 20:58:00,52.9,50.0,30.13,SSW,207,6.0,-999.0,88,-99.99,,,0.02,0,weatherlink.com 1.10,2013-10-08 19:58:00,
2013-10-08 21:13:00,52.8,49.0,30.13,WSW,242,0.0,-999.0,87,-99.99,,,0.02,0,weatherlink.com 1.10,2013-10-08 20:13:00,
2013-10-08 21:28:00,52.7,49.0,30.13,WSW,237,1.0,-999.0,87,-99.99,,,0.02,0,weatherlink.com 1.10,2013-10-08 20:28:00,
2013-10-08 21:43:00,52.7,49.0,30.13,SSW,211,3.0,-999.0,88,-99.99,,,0.02,0,weatherlink.com 1.10,2013-10-08 20:43:00,
2013-10-08 21:58:00,52.5,49.0,30.12,WNW,285,1.0,-999.0,89,-99.99,,,0.02,0,weatherlink.com 1.10,2013-10-08 20:58:00,
2013-10-08 22:13:00,52.2,49.0,30.12,West,260,1.0,-999.0,90,-99.99,,,0.02,0,weatherlink.com 1.10,2013-10-08 21:13:00,
2013-10-08 22:28:00,52.3,49.0,30.13,West,274,6.0,-999.0,89,-99.99,,,0.02,0,weatherlink.com 1.10,2013-10-08 21:28:00,
2013-10-08 22:43:00,52.3,50.0,30.13,WNW,292,8.0,-999.0,90,-99.99,,,0.02,0,weatherlink.com 1.10,2013-10-08 21:43:00,
2013-10-08 22:58:00,51.9,49.0,30.12,SSW,202,0.0,-999.0,91,-99.99,,,0.02,0,weatherlink.com 1.10,2013-10-08 21:58:00,
2013-10-08 23:13:00,51.9,50.0,30.12,SSE,154,4.0,-999.0,92,-99.99,,,0.02,0,weatherlink.com 1.10,2013-10-08 22:13:00,
2013-10-08 23:28:00,52.0,50.0,30.12,WSW,250,6.0,-999.0,92,-99.99,,,0.02,0,weatherlink.com 1.10,2013-10-08 22:28:00,
2013-10-08 23:43:00,51.9,50.0,30.12,WSW,255,7.0,-999.0,93,-99.99,,,0.02,0,weatherlink.com 1.10,2013-10-08 22:43:00,
2013-10-08 23:58:00,51.7,50.0,30.11,West,264,6.0,-999.0,93,-99.99,,,0.00,0,weatherlink.com 1.10,2013-10-08 22:58:00,